FW8254 Weather Reports


time (UTC)temp
C
wind
direction
speed
KPH
gust
KPH
rain 1hr
cm
rain 24hr
cm
rain mn
cm
humidity
%
barometer
mb
20260506222836 29 312 6.4 8.0 0.00 0.00 0.00 46 1006.6
20260506222331 30 305 8.0 12.9 0.00 0.00 0.00 46 1006.6
20260506221830 29 251 6.4 8.0 0.00 0.00 0.00 47 1006.7
20260506221327 29 295 6.4 9.7 0.00 0.00 0.00 45 1006.7
20260506220825 29 321 4.8 8.0 0.00 0.00 0.00 46 1006.8
20260506220320 29 343 4.8 8.0 0.00 0.00 0.00 47 1006.9
20260506215817 28 296 4.8 4.8 0.00 0.00 0.00 47 1006.8
20260506215312 28 300 4.8 9.7 0.00 0.00 0.00 47 1006.9
20260506214808 28 248 9.7 9.7 0.00 0.00 0.00 47 1007.0
20260506214305 29 286 8.0 14.5 0.00 0.00 0.00 46 1006.7
20260506213804 29 268 12.9 22.5 0.00 0.00 0.00 46 1007.0
20260506213300 28 285 9.7 11.3 0.00 0.00 0.00 47 1006.9
20260506212758 29 290 9.7 14.5 0.00 0.00 0.00 47 1006.9
20260506212253 29 265 11.3 12.9 0.00 0.00 0.00 46 1007.2
20260506211748 29 224 8.0 11.3 0.00 0.00 0.00 44 1007.1
20260506211245 29 289 6.4 16.1 0.00 0.00 0.00 46 1006.9
20260506210742 29 277 11.3 12.9 0.00 0.00 0.00 45 1007.2
20260506210239 29 282 11.3 17.7 0.00 0.00 0.00 46 1007.3
20260506205736 29 305 9.7 12.9 0.00 0.00 0.00 45 1007.1
20260506205232 28 278 11.3 29.0 0.00 0.00 0.00 46 1007.1
20260506204729 29 271 19.3 25.7 0.00 0.00 0.00 46 1007.3
20260506204226 30 306 11.3 16.1 0.00 0.00 0.00 47 1007.2
20260506203724 29 33 4.8 4.8 0.00 0.00 0.00 47 1007.1
20260506203221 29 344 4.8 11.3 0.00 0.00 0.00 48 1007.1
20260506202719 29 307 6.4 11.3 0.00 0.00 0.00 49 1007.6
20260506202215 28 275 6.4 9.7 0.00 0.00 0.00 50 1007.4
20260506201712 28 301 6.4 11.3 0.00 0.00 0.00 50 1007.8
20260506201209 28 26 6.4 14.5 0.00 0.00 0.00 51 1007.9
20260506200706 28 56 1.6 3.2 0.00 0.00 0.00 49 1007.8
20260506200203 28 293 6.4 22.5 0.00 0.00 0.00 50 1007.7
20260506195659 28 277 8.0 12.9 0.00 0.00 0.00 50 1007.7
20260506195155 28 272 4.8 17.7 0.00 0.00 0.00 50 1007.8
20260506194653 28 140 4.8 9.7 0.00 0.00 0.00 48 1007.9
20260506194149 28 287 8.0 12.9 0.00 0.00 0.00 50 1008.3
20260506193647 27 289 8.0 11.3 0.00 0.00 0.00 49 1008.5
20260506193143 27 291 6.4 12.9 0.00 0.00 0.00 50 1008.7
20260506192640 27 284 8.0 12.9 0.00 0.00 0.00 50 1009.0
20260506192136 27 274 12.9 16.1 0.00 0.00 0.00 50 1008.6
20260506191633 27 34 3.2 9.7 0.00 0.00 0.00 50 1008.6
20260506191129 27 297 8.0 11.3 0.00 0.00 0.00 49 1008.7
20260506190627 27 291 4.8 9.7 0.00 0.00 0.00 50 1008.7
20260506190123 26 314 4.8 11.3 0.00 0.00 0.00 52 1009.1
20260506185621 26 286 9.7 12.9 0.00 0.00 0.00 50 1009.1
20260506185117 26 280 6.4 11.3 0.00 0.00 0.00 52 1009.0
20260506184614 26 334 4.8 9.7 0.00 0.00 0.00 51 1008.9
20260506184111 26 262 8.0 14.5 0.00 0.00 0.00 54 1009.0
20260506183608 26 298 8.0 14.5 0.00 0.00 0.00 52 1008.9
20260506183104 26 308 6.4 8.0 0.00 0.00 0.00 52 1009.1
20260506182602 26 333 4.8 12.9 0.00 0.00 0.00 52 1009.0
20260506182058 25 296 4.8 4.8 0.00 0.00 0.00 55 1009.3
20260506181556 25 279 4.8 9.7 0.00 0.00 0.00 58 1009.7
20260506181053 25 279 8.0 11.3 0.00 0.00 0.00 58 1009.8
20260506180550 25 237 6.4 11.3 0.00 0.00 0.00 63 1010.1
20260506180047 24 12 1.6 4.8 0.00 0.00 0.00 64 1010.1
20260506175543 24 304 8.0 9.7 0.00 0.00 0.00 64 1010.1
20260506175039 24 4 1.6 4.8 0.00 0.00 0.00 65 1010.1
20260506174538 23 321 4.8 8.0 0.00 0.00 0.00 65 1010.2
20260506174033 23 312 6.4 9.7 0.00 0.00 0.00 67 1010.5
20260506173532 23 263 6.4 9.7 0.00 0.00 0.00 65 1010.9
20260506173028 23 281 8.0 9.7 0.00 0.00 0.00 64 1010.8
20260506172526 23 270 9.7 12.9 0.00 0.00 0.00 68 1010.9
20260506172022 23 246 9.7 17.7 0.00 0.00 0.00 65 1010.9
20260506171519 23 278 8.0 9.7 0.00 0.00 0.00 66 1010.8
20260506171017 23 102 4.8 9.7 0.00 0.00 0.00 67 1011.0
20260506170514 23 337 4.8 9.7 0.00 0.00 0.00 67 1010.7
20260506170006 22 27 3.2 8.0 0.00 0.00 0.00 68 1010.7
20260506165504 22 315 6.4 9.7 0.00 0.00 0.00 69 1011.0
20260506165000 22 264 6.4 9.7 0.00 0.00 0.00 69 1011.1
20260506164456 22 243 9.7 11.3 0.00 0.00 0.00 70 1011.4
20260506163954 22 312 6.4 11.3 0.00 0.00 0.00 70 1011.5
20260506163449 22 297 6.4 8.0 0.00 0.00 0.00 70 1011.7
20260506162944 22 299 4.8 9.7 0.00 0.00 0.00 70 1011.5
20260506162442 22 268 6.4 9.7 0.00 0.00 0.00 70 1011.5
20260506161934 22 261 9.7 17.7 0.00 0.00 0.00 70 1011.7
20260506161432 22 257 9.7 14.5 0.00 0.00 0.00 70 1011.8
20260506160929 22 271 4.8 8.0 0.00 0.00 0.00 70 1011.5
20260506160426 22 266 6.4 12.9 0.00 0.00 0.00 69 1011.7
20260506155923 22 276 8.0 11.3 0.00 0.00 0.00 70 1011.8
20260506155420 22 255 8.0 9.7 0.00 0.00 0.00 70 1011.4
20260506153542 22 284 6.4 9.7 0.00 0.00 0.00 70 1011.2
20260506153040 22 277 9.7 14.5 0.00 0.00 0.00 71 1011.3
20260506152537 22 302 6.4 11.3 0.00 0.00 0.00 70 1011.2
20260506152035 21 275 6.4 9.7 0.00 0.00 0.00 71 1011.2
20260506151532 21 294 8.0 11.3 0.00 0.00 0.00 72 1011.1
20260506151029 21 293 4.8 9.7 0.00 0.00 0.00 72 1011.1
20260506150526 21 263 6.4 8.0 0.00 0.00 0.00 72 1011.1
20260506150023 21 302 6.4 8.0 0.00 0.00 0.00 72 1011.1
20260506145519 21 271 4.8 8.0 0.00 0.00 0.00 73 1010.9
20260506145017 21 303 6.4 8.0 0.00 0.00 0.00 73 1010.9
20260506144513 21 273 4.8 11.3 0.00 0.00 0.00 73 1010.9
20260506144011 21 309 4.8 8.0 0.00 0.00 0.00 72 1011.0
20260506143508 21 337 3.2 4.8 0.00 0.00 0.00 73 1011.0
20260506143007 20 301 6.4 9.7 0.00 0.00 0.00 73 1010.9
20260506142504 20 317 3.2 11.3 0.00 0.00 0.00 73 1011.1
20260506142002 20 306 4.8 11.3 0.00 0.00 0.00 74 1011.2
20260506141459 20 304 6.4 9.7 0.00 0.00 0.00 74 1011.0
20260506140958 20 300 6.4 8.0 0.00 0.00 0.00 73 1011.1
20260506140454 20 298 9.7 11.3 0.00 0.00 0.00 74 1011.1
20260506135951 20 330 4.8 9.7 0.00 0.00 0.00 74 1011.2
20260506135449 20 316 4.8 8.0 0.00 0.00 0.00 75 1011.2
20260506134944 20 349 3.2 8.0 0.00 0.00 0.00 74 1011.3
20260506134440 20 310 6.4 8.0 0.00 0.00 0.00 74 1011.2
20260506133938 19 301 8.0 8.0 0.00 0.00 0.00 75 1011.2
20260506133435 19 317 6.4 8.0 0.00 0.00 0.00 75 1011.2
20260506132931 19 318 4.8 8.0 0.00 0.00 0.00 75 1011.3
20260506132429 19 268 4.8 8.0 0.00 0.00 0.00 75 1011.3
20260506131926 19 294 4.8 8.0 0.00 0.00 0.00 75 1010.8
20260506131422 19 324 4.8 9.7 0.00 0.00 0.00 75 1011.0
20260506130920 18 335 4.8 9.7 0.00 0.00 0.00 76 1011.0
20260506130416 18 356 4.8 4.8 0.00 0.00 0.00 76 1010.8
20260506125914 18 45 1.6 3.2 0.00 0.00 0.00 76 1010.8
20260506125412 18 30 1.6 1.6 0.00 0.00 0.00 76 1011.0
20260506124910 18 359 3.2 3.2 0.00 0.00 0.00 76 1011.1
20260506124407 18 19 1.6 1.6 0.00 0.00 0.00 76 1011.1
20260506123905 18 29 0.0 1.6 0.00 0.00 0.00 77 1010.9
20260506123403 17 29 0.0 0.0 0.00 0.00 0.00 77 1011.0
20260506122900 17 31 0.0 1.6 0.00 0.00 0.00 77 1011.1
20260506122356 17 32 0.0 0.0 0.00 0.00 0.00 77 1011.1
20260506121855 17 29 1.6 3.2 0.00 0.00 0.00 77 1011.0
20260506121351 17 41 0.0 0.0 0.00 0.00 0.00 78 1010.8
20260506120848 17 41 0.0 0.0 0.00 0.00 0.00 78 1011.0
20260506120346 17 45 0.0 1.6 0.00 0.00 0.00 78 1010.9
20260506115843 17 51 0.0 0.0 0.00 0.00 0.00 78 1010.7
20260506115341 17 51 0.0 0.0 0.00 0.00 0.00 78 1010.8
20260506114839 17 51 0.0 0.0 0.00 0.00 0.00 78 1010.7
20260506114336 17 51 0.0 1.6 0.00 0.00 0.00 78 1010.5
20260506113835 17 51 0.0 1.6 0.00 0.00 0.00 78 1010.7
20260506113332 17 49 1.6 1.6 0.00 0.00 0.00 78 1010.6
20260506112829 17 45 0.0 0.0 0.00 0.00 0.00 78 1010.5
20260506112326 17 35 1.6 1.6 0.00 0.00 0.00 77 1010.3
20260506111823 17 44 0.0 1.6 0.00 0.00 0.00 77 1009.9
20260506111322 17 43 0.0 1.6 0.00 0.00 0.00 77 1009.8
20260506110819 17 84 1.6 3.2 0.00 0.00 0.00 77 1009.5
20260506110315 16 45 0.0 3.2 0.00 0.00 0.00 77 1009.6
20260506105812 17 35 0.0 1.6 0.00 0.00 0.00 77 1009.6
20260506105309 17 52 0.0 1.6 0.00 0.00 0.00 77 1009.5
20260506104807 17 60 0.0 1.6 0.00 0.00 0.00 77 1009.6
20260506104304 17 52 0.0 3.2 0.00 0.00 0.00 77 1009.9
20260506103801 16 43 0.0 1.6 0.00 0.00 0.00 77 1009.8
20260506103259 16 26 3.2 3.2 0.00 0.00 0.00 77 1009.5
20260506102756 16 31 0.0 1.6 0.00 0.00 0.00 77 1009.7
20260506102254 16 53 0.0 1.6 0.00 0.00 0.00 77 1009.5
20260506101751 16 45 0.0 0.0 0.00 0.00 0.00 78 1009.3
20260506101247 16 31 0.0 0.0 0.00 0.00 0.00 78 1009.4
20260506100745 16 51 0.0 1.6 0.00 0.00 0.00 78 1009.4
20260506100243 16 37 0.0 0.0 0.00 0.00 0.00 78 1009.6
20260506095742 16 35 0.0 3.2 0.00 0.00 0.00 78 1009.4
20260506095238 16 38 1.6 1.6 0.00 0.00 0.00 78 1009.5
20260506094734 16 50 0.0 0.0 0.00 0.00 0.00 79 1009.4
20260506094233 16 50 0.0 1.6 0.00 0.00 0.00 79 1009.6
20260506093731 16 50 0.0 0.0 0.00 0.00 0.00 79 1009.5
20260506093228 16 50 0.0 1.6 0.00 0.00 0.00 79 1009.5
20260506092726 16 50 0.0 1.6 0.00 0.00 0.00 79 1009.5
20260506092224 16 50 0.0 0.0 0.00 0.00 0.00 79 1009.8
20260506091721 16 50 0.0 0.0 0.00 0.00 0.00 79 1009.9
20260506091218 16 50 0.0 0.0 0.00 0.00 0.00 79 1010.1
20260506090716 16 50 0.0 0.0 0.00 0.00 0.00 79 1010.1
20260506090212 16 50 0.0 0.0 0.00 0.00 0.00 79 1010.3
20260506085709 16 50 0.0 0.0 0.00 0.00 0.00 78 1010.0
20260506085205 16 50 0.0 0.0 0.00 0.00 0.00 78 1010.1
20260506084703 16 50 0.0 0.0 0.00 0.00 0.00 78 1010.1
20260506084159 16 50 0.0 0.0 0.00 0.00 0.00 78 1009.9
20260506083656 16 50 0.0 0.0 0.00 0.00 0.00 77 1010.2
20260506083154 16 50 0.0 0.0 0.00 0.00 0.00 77 1010.3
20260506082651 16 50 0.0 0.0 0.00 0.00 0.00 77 1010.2
20260506082151 16 50 0.0 0.0 0.00 0.00 0.00 76 1010.5
20260506081649 16 50 0.0 0.0 0.00 0.00 0.00 76 1010.3
20260506081147 16 50 0.0 0.0 0.00 0.00 0.00 76 1010.5
20260506080644 16 50 0.0 0.0 0.00 0.00 0.00 76 1010.7
20260506080140 16 50 0.0 0.0 0.00 0.00 0.00 76 1010.6
20260506073125 16 50 0.0 1.6 0.00 0.00 0.00 75 1010.5
20260506072621 17 41 0.0 0.0 0.00 0.00 0.00 75 1010.6
20260506072119 17 41 0.0 0.0 0.00 0.00 0.00 74 1010.8
20260506071617 17 46 0.0 0.0 0.00 0.00 0.00 74 1010.5
20260506071114 17 46 0.0 1.6 0.00 0.00 0.00 74 1010.3
20260506070611 17 35 0.0 3.2 0.00 0.00 0.00 73 1010.6
20260506070108 17 35 0.0 0.0 0.00 0.00 0.00 73 1010.2
20260506062045 17 52 0.0 1.6 0.00 0.00 0.00 71 1010.1
20260506061541 17 80 3.2 3.2 0.00 0.00 0.00 71 1010.3
20260506061039 18 41 0.0 1.6 0.00 0.00 0.00 71 1010.5
20260506060537 18 57 1.6 4.8 0.00 0.00 0.00 71 1010.6
20260506051006 18 58 1.6 3.2 0.00 0.00 0.00 67 1010.7
20260506050503 18 45 1.6 3.2 0.00 0.00 0.00 67 1011.0
20260506044954 18 56 1.6 4.8 0.00 0.00 0.00 66 1010.9
20260506044452 19 64 1.6 3.2 0.00 0.00 0.00 65 1010.6
20260506043948 19 346 3.2 3.2 0.00 0.00 0.00 65 1010.6
20260506043445 19 72 3.2 3.2 0.00 0.00 0.00 65 1010.7
20260506042943 19 37 3.2 4.8 0.00 0.00 0.00 65 1010.9
20260506042443 19 52 1.6 4.8 0.00 0.00 0.00 64 1010.7
20260506041940 19 54 0.0 1.6 0.00 0.00 0.00 64 1010.8
20260506041438 19 65 3.2 3.2 0.00 0.00 0.00 64 1010.6
20260506040935 20 59 1.6 3.2 0.00 0.00 0.00 64 1010.6
20260506040432 20 59 0.0 3.2 0.00 0.00 0.00 64 1010.7
20260506035928 20 62 1.6 3.2 0.00 0.00 0.00 64 1010.9
20260506035426 20 61 1.6 3.2 0.00 0.00 0.00 64 1010.6
20260506034922 20 52 0.0 3.2 0.00 0.00 0.00 65 1010.6
20260506034420 20 59 0.0 3.2 0.00 0.00 0.00 64 1010.6
20260506033917 20 78 1.6 3.2 0.00 0.00 0.00 64 1010.5
20260506033414 20 47 0.0 3.2 0.00 0.00 0.00 64 1010.4
20260506032911 20 63 4.8 4.8 0.00 0.00 0.00 64 1010.5
20260506032408 20 63 1.6 4.8 0.00 0.00 0.00 64 1010.6
20260506031905 20 79 1.6 3.2 0.00 0.00 0.00 64 1010.5
20260506031402 20 48 0.0 4.8 0.00 0.00 0.00 63 1010.5
20260506030859 20 33 1.6 3.2 0.00 0.00 0.00 64 1010.3
20260506030357 20 91 4.8 4.8 0.00 0.00 0.00 63 1010.4
20260506025854 20 53 0.0 4.8 0.00 0.00 0.00 63 1010.4
20260506025350 21 62 1.6 3.2 0.00 0.00 0.00 63 1010.2
20260506024847 21 55 1.6 3.2 0.00 0.00 0.00 63 1010.2
20260506024344 21 50 1.6 1.6 0.00 0.00 0.00 62 1010.0
20260506023840 21 51 1.6 3.2 0.00 0.00 0.00 62 1010.0
20260506023337 21 56 0.0 1.6 0.00 0.00 0.00 61 1010.1
20260506022834 21 47 0.0 1.6 0.00 0.00 0.00 61 1010.0
20260506022332 21 55 0.0 3.2 0.00 0.00 0.00 60 1009.9
20260506021830 21 52 1.6 3.2 0.00 0.00 0.00 59 1009.9
20260506021326 21 80 3.2 4.8 0.00 0.00 0.00 58 1010.0
20260506020823 21 73 1.6 3.2 0.00 0.00 0.00 57 1010.2
20260506020321 21 59 0.0 3.2 0.00 0.00 0.00 55 1010.1
20260506015818 21 64 1.6 3.2 0.00 0.00 0.00 54 1009.9
20260506015316 21 48 1.6 3.2 0.00 0.00 0.00 54 1010.3
20260506014812 21 51 0.0 3.2 0.00 0.00 0.00 54 1010.1
20260506014309 21 52 0.0 0.0 0.00 0.00 0.00 57 1010.2
20260506013806 21 52 0.0 0.0 0.00 0.00 0.00 58 1009.8
20260506013303 21 52 0.0 0.0 0.00 0.00 0.00 52 1009.8
20260506012759 21 52 0.0 0.0 0.00 0.00 0.00 51 1009.7
20260506012256 21 52 0.0 0.0 0.00 0.00 0.00 50 1009.8
20260506011754 22 52 0.0 0.0 0.00 0.00 0.00 50 1009.4
20260506011250 22 52 0.0 0.0 0.00 0.00 0.00 49 1009.6
20260506010748 22 52 0.0 0.0 0.00 0.00 0.00 48 1009.5
20260506010245 22 52 0.0 0.0 0.00 0.00 0.00 48 1009.6
20260506005743 22 52 0.0 0.0 0.00 0.00 0.00 48 1009.3
20260506005239 22 52 0.0 0.0 0.00 0.00 0.00 48 1009.2
20260506004735 23 52 0.0 0.0 0.00 0.00 0.00 47 1009.4
20260506004233 23 52 0.0 0.0 0.00 0.00 0.00 46 1009.4
20260506003728 23 52 0.0 0.0 0.00 0.00 0.00 46 1009.3
20260506003225 23 52 0.0 0.0 0.00 0.00 0.00 45 1008.9
20260506002721 23 53 0.0 0.0 0.00 0.00 0.00 45 1009.2
20260506002218 23 52 0.0 0.0 0.00 0.00 0.00 44 1008.9
20260506001714 24 52 0.0 0.0 0.00 0.00 0.00 44 1009.0
20260506001211 24 52 0.0 0.0 0.00 0.00 0.00 43 1008.8
20260506000708 25 53 0.0 0.0 0.00 0.00 0.00 42 1008.8
20260506000206 25 53 0.0 0.0 0.00 0.00 0.00 41 1008.5
20260505235703 25 53 0.0 0.0 0.00 0.00 0.00 41 1008.7
20260505235201 25 51 0.0 1.6 0.00 0.00 0.00 40 1008.7
20260505234657 26 46 0.0 1.6 0.00 0.00 0.00 40 1008.8
20260505234154 26 21 1.6 3.2 0.00 0.00 0.00 40 1008.7
20260505233651 26 97 3.2 3.2 0.00 0.00 0.00 39 1008.8
20260505233149 26 335 4.8 8.0 0.00 0.00 0.00 38 1009.0
20260505232646 26 65 1.6 4.8 0.00 0.00 0.00 38 1008.8
20260505232144 26 72 1.6 4.8 0.00 0.00 0.00 38 1008.8
20260505231640 26 307 4.8 4.8 0.00 0.00 0.00 38 1008.7
20260505231139 26 287 4.8 4.8 0.00 0.00 0.00 38 1008.8
20260505230637 26 301 4.8 8.0 0.00 0.00 0.00 37 1009.1
20260505230132 26 25 3.2 8.0 0.00 0.00 0.00 38 1008.9
20260505225629 26 144 3.2 9.7 0.00 0.00 0.00 37 1008.8
20260505225125 26 345 4.8 4.8 0.00 0.00 0.00 38 1009.0
20260505224622 26 259 6.4 11.3 0.00 0.00 0.00 37 1009.1
20260505224120 26 251 6.4 9.7 0.00 0.00 0.00 37 1009.3
20260505223617 26 313 4.8 12.9 0.00 0.00 0.00 38 1008.9